sat.trackr.live / text

‹ back to catalog

STARLINK-3944

NORAD 52544 · 2022-051M

PAYLOAD ACTIVE UNKNOWN

§ Identity

Operator
Country
US
Launch date
2022-05-13
Launch site
AFWTR
Launch vehicle
Mass (kg)
RCS (m²)

Purposes: comms

External: N2YO · Heavens-Above · Gunter

§ Orbital elements

Epoch: 2026-09-20T04:45:23.425056Z

Period
94.01 min
Inclination
53.1610°
Eccentricity
0.0001160
Mean motion
15.31704154 rev/d
Perigee alt
469.9 km
Apogee alt
471.5 km
Semi-major
6,848.9 km
B*
1.9591e-5
RAAN
335.4510°
Arg perigee
84.1074°
Mean anomaly
276.0060°
Rev number
24,080

§ Raw data

STARLINK-39441 52544U 22051M   26263.19818779  .00000243  00000+0  19591-4 0  99962 52544  53.1610 335.4510 0001160  84.1074 276.0060 15.31704154240807

JSON: /api/v1/satellites/52544 · /tle

For live sub-satellite position, see the globe view (requires WebGL).

§ Visibility from observer

Set your observer location to see the next 7 days of passes ≥ 10°. The values pass through the URL so the page stays shareable.

No JS? Fill the form by hand. The geolocation button needs JavaScript.